Probability
0 0 0 0 0 0 0 0 0 0 0 0 0 0 0 0 0 0 0 0 0 0 0 0 0 0 0 0 0 1 1 1 0 0 0 0 0 0 0 0 0 0 0 0
0 0 0 0 0 0 0 0 0 0 0 0 0 0 0 0 0 0 0 0 0 0 0 0 0 0 0 0 0 0 0 0 0 0 0 0 0 0 0 0 0 0 0 0
0 0 0 0 0 0 0 0 0 0 0 0 0 0 0 0 0 0 0 0 0 0 0 0 0 0 0 0 0 0 0 0 0 0 0 0 0 0 0 0 0 0 0 0
0 0 0 0 0 0 0 0 0 0 0 0 0 0 0 0 0 0 0 0 0 0 0 0 0 0 0 0 0 0 0 0 0 0 0 0 0 0 0 0 0 0 0 0
0 0 0 0 0 0 0 0 0 0 0 0 0 0 0 0 0 0 0 0 0 0 0 0 0 0 0 0 0 0 0 0 0 0 0 0 0 0 0 0 0 0 0 0
0 0 0 0 0 0 0 0 0 0 0 0 0 0 0 0 0 0 0 0 0 0 0 0 0 1 1 0 0 0 0 0 0 0 0 0 0 0 0 0 0 0 0 0
0 0 0 0 0 0 0 0 0 0 0 0 0 0 0 0 0 0 0 0 0 0 0 0 0 1 1 1 0 0 0 0 0 0 0 0 0 0 0 0 0 0 0 0
0 0 0 0 0 0 0 0 0 0 0 0 0 0 0 0 0 0 0 0 0 0 0 0 0 1 2 1 0 0 0 0 0 0 0 0 0 0 0 0 0 0 0 0
0 0 0 0 0 0 0 0 0 0 0 0 0 0 0 0 0 0 0 0 0 0 0 0 0 1 2 2 1 1 0 0 0 0 0 0 0 0 0 0 0 0 0 0
0 0 0 0 0 0 0 0 0 0 0 0 0 0 0 0 0 0 0 0 0 0 0 0 0 1 2 3 3 2 1 0 0 0 0 0 0 0 0 0 0 0 0 0
0 0 0 0 0 0 0 0 0 0 0 0 0 0 0 0 0 0 0 0 0 0 0 0 0 1 1 2 2 2 1 0 0 0 0 0 0 0 0 0 0 0 0 0
0 0 0 0 0 0 0 0 0 0 0 0 0 0 0 0 0 0 0 0 0 0 0 0 0 0 0 1 1 1 0 0 0 0 0 0 0 0 0 0 0 0 0 0
0 0 0 0 0 0 0 0 0 0 0 0 0 0 0 0 0 0 0 0 0 0 0 0 0 0 0 0 0 0 0 0 0 0 0 0 0 0 0 0 0 0 0 0
0 0 0 0 0 0 0 0 0 0 0 0 0 0 0 0 0 0 0 0 0 0 0 0 0 0 0 0 0 0 0 0 0 0 0 0 0 0 0 0 0 0 0 0
0 0 0 0 0 0 0 0 0 0 0 0 0 0 0 0 0 0 0 0 0 0 0 0 0 0 0 0 0 0 0 0 0 0 0 0 0 0 0 0 0 0 0 0
0 0 0 0 0 0 0 0 0 0 0 0 0 0 0 0 0 0 0 0 0 0 0 0 0 0 0 0 0 0 0 0 0 0 0 0 0 0 0 0 0 0 0 0
0 0 0 0 0 0 0 0 0 0 0 0 0 0 0 0 0 0 0 0 0 0 0 0 0 0 0 0 0 0 0 0 0 0 0 0 0 0 0 0 0 0 0 0
0 0 0 0 0 0 0 0 0 0 0 0 0 0 0 0 0 0 0 0 0 0 0 0 0 0 0 0 0 0 0 0 0 0 0 0 0 0 0 0 0 0 0 0
0 0 0 0 0 0 0 0 0 0 0 0 0 0 0 0 0 0 0 0 0 0 0 0 0 0 0 0 0 0 0 0 0 0 0 0 0 0 0 0 0 0 0 0
0 0 0 0 0 0 0 0 0 0 0 0 0 0 0 0 0 0 0 0 0 0 0 0 0 0 0 0 0 0 0 0 0 0 0 0 0 0 0 0 0 0 0 0
0 0 0 0 0 0 0 0 0 0 0 0 0 0 0 0 0 0 0 0 0 0 0 0 0 0 0 0 0 0 0 0 0 0 0 0 0 0 0 0 0 0 0 0
0 0 0 0 0 0 0 0 0 0 0 0 0 0 0 0 0 0 0 0 0 0 0 0 0 0 0 0 0 0 0 0 0 0 0 0 0 0 0 0 0 0 0 0
0 0 0 0 0 0 0 0 0 0 0 0 0 0 0 0 0 0 0 0 0 0 0 0 0 0 0 0 0 0 0 0 0 0 0 0 0 0 0 0 0 0 0 0
0 0 0 0 0 0 0 0 0 0 0 0 0 0 0 0 0 0 0 0 0 0 0 0 0 0 0 0 0 0 0 0 0 0 0 0 0 0 0 0 0 0 0 0
0 0 0 0 0 0 0 0 0 0 0 0 0 0 0 0 0 0 0 0 0 0 0 0 0 0 0 0 0 0 0 0 0 0 0 0 0 0 0 0 0 0 0 0
0 0 0 0 0 0 0 0 0 0 0 0 0 0 0 0 0 0 0 0 0 0 0 0 0 0 0 0 0 0 0 0 0 0 0 0 0 0 0 0 0 0 0 0
Wind_Speed
5 7 4 2 1 2 3 3 2 0 1 1 1 3 4 4 3 4 4 3 4 4 3 2 2 2 2 2 2 3 3 2 2 2 1 1 1 1 1 1 2 2 2 2
7 5 2 1 2 4 4 4 2 2 1 1 1 4 5 4 5 5 5 5 5 3 2 2 2 2 3 3 2 2 2 2 3 2 2 2 2 1 0 1 1 2 2 2
5 2 3 3 4 5 3 2 2 1 2 2 2 5 3 2 2 2 3 3 3 4 4 3 2 3 2 2 3 3 2 2 2 2 2 1 1 1 1 1 1 2 2 2
4 4 3 4 3 3 1 0 1 1 2 2 1 2 5 2 2 3 4 3 4 3 2 2 3 2 2 2 2 2 2 2 2 2 3 3 2 1 1 1 0 1 1 2
2 3 4 3 2 1 1 1 2 2 2 2 1 1 7 2 3 5 5 5 5 3 3 3 3 4 3 2 1 1 2 2 2 2 3 3 2 1 1 0 0 1 1 1
2 1 2 1 2 1 1 3 3 3 3 1 2 2 6 3 4 3 3 5 5 4 3 3 2 2 2 1 1 1 1 1 2 2 2 2 2 1 1 0 1 1 1 1
4 4 4 2 3 4 3 4 4 5 4 4 1 2 8 5 4 4 3 4 4 3 3 2 2 2 2 2 2 2 2 2 2 2 2 2 2 2 2 2 1 1 1 1
2 3 4 3 1 0 1 3 5 3 3 4 2 4 7 4 3 2 2 2 1 2 3 3 3 4 3 4 3 3 3 3 2 2 2 2 2 2 1 2 1 1 1 1
3 2 2 2 1 1 1 1 2 5 2 2 4 5 7 2 2 2 1 1 1 2 3 4 3 3 4 4 4 5 4 3 2 2 2 1 2 2 1 1 1 1 1 1
4 1 2 3 2 2 1 3 3 4 3 2 5 4 5 4 4 3 3 3 3 3 3 3 3 4 4 4 4 3 4 4 3 2 2 1 1 2 1 1 1 1 1 1
2 3 2 2 1 2 1 1 3 3 3 4 3 7 6 5 4 4 5 5 4 4 4 4 3 3 3 2 2 3 3 2 2 2 2 1 1 1 1 1 2 2 1 1
1 4 1 4 2 1 2 3 4 4 3 3 2 8 4 4 3 3 4 4 3 4 4 3 3 2 2 2 2 2 2 2 3 2 2 2 1 1 1 2 2 2 2 2
3 5 2 4 3 2 2 2 3 3 3 4 4 9 3 1 2 3 4 4 4 3 3 3 2 3 3 3 3 3 3 3 2 2 2 2 1 2 2 3 2 2 2 2
4 3 5 7 5 3 3 3 4 5 4 5 9 10 8 6 5 5 4 5 4 4 4 3 4 4 4 4 3 3 3 2 2 2 2 2 2 3 3 2 2 2 2 2
4 3 3 4 3 2 4 5 6 8 9 9 9 9 15 10 6 6 5 5 4 5 5 5 5 5 4 4 4 3 3 3 3 2 2 3 3 2 2 2 2 2 2 2
3 3 1 3 2 2 5 8 9 11 9 10 9 14 15 10 5 6 6 5 6 7 6 6 5 5 5 5 5 4 3 3 3 3 3 3 2 2 2 3 2 2 2 3
4 5 3 3 4 5 9 11 13 8 9 9 13 15 9 7 7 6 6 6 7 8 7 6 6 6 5 5 5 5 5 3 3 3 3 2 2 2 3 2 2 3 3 3
6 5 3 0 3 7 9 2 7 8 9 12 11 10 9 9 6 5 6 7 8 7 6 6 5 5 5 4 4 3 2 3 3 3 3 2 2 3 3 2 3 4 3 3
4 7 4 3 3 10 10 5 7 8 9 11 14 14 11 5 3 7 8 8 9 8 6 6 5 5 4 3 4 3 3 3 3 4 4 4 4 4 3 3 4 4 3 4
2 3 5 4 4 9 8 3 4 4 8 8 11 12 9 3 2 7 5 4 5 5 4 4 3 2 3 3 3 4 4 4 5 5 5 4 4 4 4 5 4 3 3 4
4 3 5 6 7 13 9 4 6 5 10 5 8 9 7 8 9 6 2 3 3 3 3 3 2 3 4 3 3 4 4 6 6 4 3 3 3 4 4 4 3 3 3 3
12 10 9 7 7 15 7 9 12 12 3 3 5 7 8 9 7 5 5 5 4 4 3 3 3 4 3 2 4 5 6 6 3 2 3 3 3 3 3 3 3 3 3 4
12 13 11 15 14 6 10 11 9 4 5 5 5 6 6 6 7 6 6 6 5 5 4 3 4 4 3 3 4 6 6 3 2 3 4 4 3 3 3 3 3 3 3 3
7 5 6 8 13 9 8 8 7 6 7 7 6 5 5 7 7 7 6 6 6 6 5 4 4 4 5 4 4 6 4 3 3 4 4 4 3 3 3 3 3 3 3 4
10 9 7 10 9 6 9 12 14 11 9 8 8 7 8 8 8 8 7 8 7 6 5 4 5 6 6 4 4 4 3 3 4 4 4 3 3 4 3 3 4 4 5 5
10 12 13 13 10 10 9 9 10 11 12 12 11 9 8 9 10 9 9 8 7 6 5 5 5 6 5 4 5 4 3 4 4 4 4 3 3 3 3 3 3 6 6 8
Wind_Direction
26 59 46 313 258 160 130 111 104 292 330 59 185 266 268 237 226 238 242 239 238 237 241 229 205 186 147 130 145 160 159 156 142 146 142 125 97 27 24 29 33 32 21 20
48 37 323 340 60 87 104 101 68 357 7 65 24 295 275 232 219 216 215 222 228 236 244 238 217 183 166 169 177 170 169 165 165 165 164 154 157 154 131 13 31 28 18 10
90 310 332 56 60 80 60 119 147 161 348 32 18 324 299 275 231 229 224 221 223 212 213 216 204 199 168 170 181 179 178 163 172 158 131 116 95 74 51 6 7 9 10 3
56 348 27 57 44 80 82 139 128 119 69 334 56 308 296 283 297 260 246 239 237 229 204 199 191 191 190 198 188 180 175 165 166 161 147 145 151 183 218 239 275 1 7 2
30 358 34 47 346 59 167 144 90 98 99 18 22 164 289 319 293 271 249 237 237 225 202 200 202 202 196 178 165 181 164 153 148 147 165 169 176 199 200 157 295 310 321 338
33 355 35 344 344 44 99 58 54 49 63 346 258 173 281 252 233 261 255 238 234 226 211 206 204 194 193 164 142 135 137 159 153 143 138 158 167 175 159 238 262 289 307 320
6 359 358 12 35 19 46 76 38 11 8 264 264 187 251 254 233 227 245 244 234 220 205 208 208 205 203 193 184 173 169 184 174 157 164 170 174 176 192 217 229 260 298 302
73 325 336 359 55 109 23 120 142 177 236 285 321 238 253 261 262 254 244 235 217 218 213 216 214 209 205 202 196 190 192 201 189 180 196 184 178 187 206 213 206 218 242 267
141 258 320 335 339 109 105 108 145 123 68 320 283 283 296 270 289 291 277 271 246 240 232 229 227 220 212 207 203 198 198 204 197 189 181 175 168 171 197 205 195 224 258 287
141 156 304 318 13 19 88 136 99 112 133 282 295 274 257 275 263 263 258 247 254 259 257 245 233 226 221 216 212 195 193 201 200 185 189 189 189 192 190 175 222 243 264 288
111 124 322 353 224 203 113 111 110 113 150 164 267 273 230 225 236 233 240 240 246 245 244 242 241 235 231 229 212 201 201 203 204 197 192 188 205 212 195 200 232 244 257 268
117 115 245 261 265 282 195 181 156 158 218 191 207 267 266 230 247 235 246 253 253 244 244 241 241 246 239 232 222 210 213 214 221 207 190 201 215 212 224 230 238 239 243 251
132 113 61 343 324 338 267 214 182 143 138 170 191 258 300 300 279 256 252 264 262 256 254 252 247 240 235 227 218 213 212 219 225 197 186 205 226 228 235 244 248 246 248 261
111 132 173 201 225 195 229 231 184 153 178 208 224 249 277 273 269 274 268 261 262 256 248 249 246 242 238 230 218 211 217 214 206 187 188 217 236 240 243 248 250 248 246 252
112 175 228 260 284 237 232 232 201 203 206 208 231 240 260 259 250 255 258 259 265 263 256 249 246 246 242 234 229 219 219 215 202 193 206 231 245 252 255 255 251 251 253 257
116 150 122 302 309 282 274 251 225 227 229 235 252 265 260 265 261 256 252 247 254 257 252 250 249 250 242 231 227 219 220 219 197 202 222 236 240 248 253 256 255 258 262 265
146 133 136 269 322 349 277 234 207 209 211 202 227 244 257 262 254 245 245 243 246 254 255 251 246 242 238 231 221 216 219 209 198 212 227 235 240 249 256 257 261 262 263 265
146 137 141 153 42 247 245 202 193 209 232 218 233 248 250 249 259 255 243 240 250 251 252 253 250 247 242 231 219 211 198 191 202 216 227 232 231 240 249 249 256 263 264 259
155 143 136 143 227 275 287 237 181 196 256 225 226 245 256 266 314 286 255 230 235 240 241 243 242 241 239 226 211 188 194 199 207 223 233 233 229 231 234 240 250 259 266 267
107 125 135 152 194 244 248 204 160 123 276 238 208 229 240 171 241 267 259 229 232 240 239 240 242 238 234 237 194 186 207 211 224 231 235 236 232 229 231 238 246 254 254 261
155 167 182 190 226 258 248 176 136 174 244 226 194 211 203 194 219 241 249 241 233 234 238 234 230 233 236 220 182 204 217 229 236 235 236 237 234 234 239 244 253 257 258 265
174 175 190 172 211 249 199 153 188 216 231 199 199 203 203 217 238 253 253 250 246 248 251 243 239 254 253 204 190 214 231 241 239 230 237 245 246 243 244 242 252 256 260 264
199 193 186 195 215 233 177 197 215 206 215 219 214 220 210 223 240 246 251 253 254 249 248 242 234 252 260 225 204 222 241 236 219 221 235 245 250 246 246 241 247 252 251 255
227 200 196 236 252 242 227 238 244 228 227 234 226 222 209 226 240 246 248 252 253 252 248 245 238 246 257 246 228 233 238 218 207 223 235 240 240 245 242 242 242 243 244 250
203 179 205 242 255 267 249 231 236 239 239 245 244 232 227 232 243 243 246 247 245 247 247 237 235 244 253 252 246 240 228 204 214 229 236 237 237 241 239 238 239 243 243 243
189 186 193 225 214 209 231 219 217 223 233 234 237 244 239 227 240 244 246 246 243 244 242 240 242 245 250 246 247 244 225 205 209 229 237 236 237 239 239 248 268 263 263 272